User: anonymous   Login
Location: Chenango Forks
(42.2242°N, 75.8278°W)
Time: 05:16:00
(UTC-05:00)
Language:

Okean 3 Rocket - Orbit

View from above orbital plane
View from above orbital plane
View from above satellite
View from above satellite

Ground track
Ground track

The orbit data is extracted from the following two-line orbital elements,

1 21398U 91039B   16337.90123884 +.00000127 +00000-0 +13750-4 0  9990
2 21398 082.5245 048.9076 0022986 105.2474 016.6087 14.79640399353848
Epoch (UTC): 02 December 2016 21:37:47
Eccentricity: 0.0022986
inclination: 82.5245°
perigee height: 614 km
apogee height: 646 km
right ascension of ascending node: 48.9076°
argument of perigee: 105.2474°
revolutions per day: 14.79640399
mean anomaly at epoch: 16.6087°
orbit number at epoch: 35384

The dashed part of the orbit path shows where the satellite is in the earth's shadow,  

DLR